Regional Weather Roundup
Issued by NWS Albany, NY

Home | Current Version | Previous Version | Graphics & Text | Print | Product List | Glossary Off
Versions: 1 2 3 4 5 6 7 8 9 10 11 12 13 14 15 16 17 18 19 20 21 22 23 24 25 26 27 28

000
ASUS41 KALY 180110
RWRALY

NEW YORK STATE HOURLY WEATHER ROUNDUP
NATIONAL WEATHER SERVICE ALBANY NY
900 PM EDT TUE OCT 17 2017

NOTE: "FAIR" INDICATES FEW OR NO CLOUDS BELOW 12,000 FEET WITH NO
SIGNIFICANT WEATHER AND/OR NO OBSTRUCTIONS TO VISIBILITY.

NYZ032-033-038>043-046>054-057>066-NYZ062>081-082-084-180200-
EAST


CITY           SKY/WX    TMP DP  RH WIND       PRES   REMARKS
ALBANY         CLEAR     49  34  56 S8        30.20F
GLENS FALLS    CLEAR     45  33  63 S7        30.17S
POUGHKEEPSIE   CLEAR     42  36  79 CALM      30.24R
NEWBURGH       CLEAR     50  36  57 SW52      30.26R
MONTGOMERY     CLEAR     44  37  76 SW3       30.24R
WHITE PLAINS   CLEAR     50  37  61 CALM      30.26R
ISLIP          CLEAR     50  41  71 SW6       30.29R
NEW YORK CITY  CLEAR     56  41  57 SW7       30.28R
CENTRAL PARK   CLEAR     54  40  59 VRB3      30.30
$$

NYZ005>009-017-018-044>046-055-056-180200-
CENTRAL


CITY           SKY/WX    TMP DP  RH WIND       PRES   REMARKS
FULTON         CLEAR     48  41  76 S3        30.13R
SYRACUSE       PTCLDY    54  37  52 SW3       30.14R
ROME           CLEAR     48  38  68 E6        30.17R
ELMIRA         CLEAR     44  38  79 W5        30.19R
BINGHAMTON     CLEAR     48  33  56 SW8       30.20R
MONTICELLO     CLEAR     46  31  55 W3        30.25R
$$

NYZ026>034-041>043-087-180200-
NORTH


CITY           SKY/WX    TMP DP  RH WIND       PRES   REMARKS
WATERTOWN      CLOUDY    58  41  53 S10       30.10R
FORT DRUM      NOT AVBL
OGDENSBURG     FAIR      55  42  63 S14G22    30.04S
MASSENA        CLOUDY    56  42  59 SW14      30.05R
SARANAC LAKE   CLEAR     46  36  68 SW10      30.08R
PLATTSBURGH    CLEAR     50  34  54 S5        30.08R
$$

NYZ001>004-010>016-019>021-085-180200-
WEST


CITY           SKY/WX    TMP DP  RH WIND       PRES   REMARKS
NIAGARA FALLS  CLOUDY    62  45  53 SW17G25   30.13R
BUFFALO        MOCLDY    57  43  59 S12       30.15R
DUNKIRK        CLEAR     56  41  57 SW12      30.17R
JAMESTOWN      CLEAR     52  38  58 SW12      30.20S
WELLSVILLE     CLEAR     53  35  50 SW13      30.21R
ROCHESTER      CLEAR     52  41  66 SW7       30.14R
$$

             KEY
       WCI = WIND CHILL INDEX
       VSB = VISIBILITY
       HX  = HEAT INDEX
$$




USA.gov is the U.S. government's official web portal to all federal, state and local government web resources and services.